Location: Ch�ze
(42.9000°N, 0.0333°W)
Time: 19:16:11
(UTC+00:00)

ARGOS - Pass Details

Date: 24 January 2021
Orbit: 820 x 834 km, 98.4° (Epoch: 08 March)

Event Time Altitude Azimuth Distance (km) Brightness Sun altitude
Rises 19:35:08 0° 182° (S) 3,338 6.3 -27.8°
Reaches altitude 10° 19:37:34 10° 188° (S) 2,411 5.6 -28.2°
Maximum altitude 19:42:41 46° 261° (W) 1,099 4.1 -29.2°
Drops below altitude 10° 19:47:51 10° 335° (NNW) 2,435 5.9 -30.1°
Sets 19:50:19 0° 341° (NNW) 3,374 6.6 -30.6°
